CW7220 Weather Reports


time (UTC)temp
F
wind
direction
speed
knots
gust
knots
rain 1hr
in
rain 24hr
in
rain mn
in
humidity
%
barometer
mb
20260502150932 66 118 6.1 0.0 0.00 0.00 0.01 88 1018.9
20260502114930 67 108 5.2 0.0 0.00 0.00 0.01 82 1020.7
20260502113922 67 110 7.0 0.0 0.00 0.00 0.01 83 1020.7
20260502112934 67 85 6.1 0.0 0.00 0.00 0.01 83 1020.9
20260502111926 67 74 7.0 0.0 0.00 0.00 0.01 83 1021.0
20260502110922 67 91 6.1 0.0 0.00 0.00 0.01 83 1021.1
20260502105935 67 114 7.0 0.0 0.00 0.00 0.01 82 1021.1
20260502104925 67 103 7.8 0.0 0.00 0.00 0.01 83 1021.1
20260502103922 66 92 7.0 0.0 0.00 0.00 0.01 84 1021.3
20260502101929 66 98 6.1 0.0 0.00 0.00 0.01 84 1021.3
20260502090924 66 84 6.1 0.0 0.00 0.00 0.01 85 1021.4
20260502070928 64 76 3.5 0.0 0.00 0.00 0.01 89 1021.3
20260502064932 64 92 4.3 0.0 0.00 0.00 0.01 90 1021.4
20260502063929 64 84 5.2 0.0 0.00 0.00 0.01 90 1021.3
20260502062919 64 111 3.5 0.0 0.00 0.00 0.01 91 1021.4
20260502055920 64 109 6.1 0.0 0.00 0.00 0.01 91 1021.2
20260502054932 64 92 5.2 0.0 0.00 0.00 0.01 91 1021.3
20260502053924 64 74 5.2 0.0 0.00 0.00 0.01 91 1021.2
20260502052918 64 80 4.3 0.0 0.00 0.00 0.01 91 1021.2
20260502051929 64 74 4.3 0.0 0.00 0.00 0.01 90 1021.2
20260502050921 64 74 4.3 0.0 0.00 0.00 0.01 90 1021.2
20260502045934 64 63 5.2 0.0 0.00 0.00 0.00 90 1021.1
20260502044930 65 64 3.5 0.0 0.00 0.00 0.00 90 1021.1
20260502043923 64 96 3.5 0.0 0.00 0.00 0.00 90 1020.9
20260502042934 64 91 4.3 0.0 0.00 0.00 0.00 90 1020.9
20260502041929 64 72 5.2 0.0 0.00 0.00 0.00 90 1020.7
20260502034926 65 86 5.2 0.0 0.00 0.00 0.00 90 1020.8
20260502033921 64 81 5.2 0.0 0.00 0.00 0.00 90 1020.9
20260502032933 64 78 5.2 0.0 0.00 0.00 0.00 90 1021.0
20260502031926 64 74 3.5 0.0 0.00 0.00 0.00 90 1021.1
20260502030917 65 72 3.5 0.0 0.00 0.00 0.00 90 1021.1
20260502025924 64 84 4.3 0.0 0.00 0.00 0.00 90 1021.1
20260502024925 64 96 4.3 0.0 0.00 0.00 0.00 90 1021.0
20260502023936 64 88 5.2 0.0 0.00 0.00 0.00 90 1020.9
20260502022929 64 83 4.3 0.0 0.00 0.00 0.00 90 1021.0
20260502021924 65 79 4.3 0.0 0.00 0.00 0.00 91 1020.9
20260502015928 64 112 4.3 0.0 0.00 0.00 0.00 91 1021.1
20260502014920 64 96 5.2 0.0 0.00 0.00 0.00 91 1021.2
20260502012932 65 78 2.6 0.0 0.00 0.00 0.00 92 1021.3
20260502011923 65 82 2.6 0.0 0.00 0.00 0.00 92 1021.4
20260502010935 65 107 2.6 0.0 0.00 0.00 0.00 92 1021.5
20260502005932 65 79 4.3 0.0 0.00 0.00 0.00 92 1021.6
20260502004924 65 60 3.5 0.0 0.00 0.00 0.00 92 1021.5
20260502003936 65 89 4.3 0.0 0.00 0.00 0.00 92 1021.4
20260502002932 65 93 4.3 0.0 0.00 0.00 0.00 92 1021.6
20260502001925 65 100 3.5 0.0 0.00 0.00 0.00 92 1021.5
20260502000917 65 86 4.3 0.0 0.00 0.00 0.00 92 1021.6
20260501235927 65 82 3.5 0.0 0.00 0.00 0.06 92 1021.7
20260501234923 65 89 3.5 0.0 0.00 0.00 0.06 92 1021.9
20260501233935 65 53 2.6 0.0 0.00 0.00 0.06 92 1022.0
20260501232926 65 44 1.7 0.0 0.00 0.00 0.06 92 1022.1
20260501231923 65 59 3.5 0.0 0.00 0.00 0.06 92 1022.2
20260501230935 65 46 2.6 0.0 0.00 0.00 0.06 91 1022.1
20260501225928 65 72 2.6 0.0 0.00 0.00 0.06 91 1022.0
20260501224920 65 72 3.5 0.0 0.00 0.00 0.06 91 1022.1
20260501223934 65 78 2.6 0.0 0.00 0.00 0.06 91 1022.2
20260501221919 65 69 3.5 0.0 0.00 0.00 0.06 91 1022.3
20260501220931 65 67 4.3 0.0 0.00 0.00 0.06 91 1022.3
20260501215925 65 50 3.5 0.0 0.00 0.00 0.06 91 1022.4
20260501214916 65 44 2.6 0.0 0.00 0.00 0.06 91 1022.5
20260501213929 65 50 2.6 0.0 0.00 0.00 0.06 91 1022.4
20260501212924 65 48 3.5 0.0 0.00 0.00 0.06 90 1022.5
20260501204915 65 44 2.6 0.0 0.00 0.00 0.06 90 1022.5
20260501203933 65 41 2.6 0.0 0.00 0.00 0.06 90 1022.4
20260501200931 65 39 1.7 0.0 0.00 0.00 0.06 89 1022.1
20260501194919 65 40 1.7 0.0 0.00 0.00 0.06 89 1021.7
20260501193930 65 40 3.5 0.0 0.00 0.00 0.06 88 1021.4
20260501192922 65 37 3.5 0.0 0.00 0.00 0.06 88 1021.3
20260501191919 65 48 3.5 0.0 0.00 0.00 0.06 88 1021.2
20260501185925 66 26 3.5 0.0 0.00 0.00 0.06 87 1021.1
20260501183916 66 26 4.3 0.0 0.00 0.00 0.06 87 1020.7
20260501182929 66 13 5.2 0.0 0.00 0.00 0.06 86 1020.7
20260501181921 66 41 6.1 0.0 0.00 0.00 0.06 86 1020.6
20260501180918 66 39 7.0 0.0 0.00 0.00 0.06 85 1020.5
20260501175927 66 51 6.1 0.0 0.00 0.00 0.06 85 1020.3
20260501173934 66 19 5.2 0.0 0.00 0.00 0.06 86 1020.4
20260501172932 66 42 3.5 0.0 0.00 0.00 0.06 87 1020.4
20260501171924 66 42 4.3 0.0 0.00 0.00 0.06 87 1020.5
20260501170916 66 66 4.3 0.0 0.00 0.00 0.06 87 1020.4
20260501165928 66 72 5.2 0.0 0.00 0.00 0.06 87 1020.5
20260501164924 66 60 3.5 0.0 0.00 0.00 0.06 86 1020.5
20260501163917 66 71 4.3 0.0 0.00 0.00 0.06 86 1020.5
20260501162930 66 99 5.2 0.0 0.00 0.00 0.06 87 1020.4
20260501161927 66 108 3.5 0.0 0.00 0.00 0.06 86 1020.4
20260501160919 66 86 3.5 0.0 0.00 0.00 0.06 86 1020.3
20260501155929 66 67 4.3 0.0 0.00 0.00 0.06 86 1020.3
20260501153919 67 84 2.6 0.0 0.00 0.00 0.06 86 1020.3